Theta_e
289 289 289 289 289 289 289 289 289 288 288 288 288 288 288 288 288 288 288 288 288 288 288 288 288 288 288 288 288 288 288 288 287 287 286 286 286 285 285 285 284 284 284 284 284 284 284 284 284 284 284 284 284 284 284 284 284 284 284 284 284 284 284 283 283 284 284 284 284 284 284 284 285 284 284 284 284 284 284 283 283 282 281 281 280
289 289 289 289 289 289 289 289 289 288 288 287 287 287 288 287 287 287 287 287 287 287 288 288 288 288 288 288 288 288 288 287 287 287 286 286 286 286 285 284 284 284 284 283 283 283 283 283 284 284 284 283 283 283 283 283 283 283 283 283 283 283 283 282 282 283 283 283 283 283 283 283 283 284 284 284 284 284 283 283 282 282 281 280 280
288 288 288 289 289 289 289 289 288 288 288 287 286 286 287 287 287 287 287 287 287 286 287 287 287 287 287 288 288 288 288 288 287 287 287 287 286 286 286 285 284 284 283 283 283 283 283 283 283 283 283 282 282 282 282 282 282 282 282 282 282 282 282 282 282 282 282 282 282 282 282 282 282 283 283 283 283 283 283 282 282 281 281 280 280
288 288 288 288 288 288 288 288 288 287 286 286 285 285 286 287 286 287 287 287 286 286 286 286 286 286 287 287 287 287 287 287 287 287 287 287 287 286 286 285 285 284 284 283 283 283 282 282 282 282 282 282 282 282 282 282 282 282 282 282 282 282 282 282 281 281 281 281 281 281 281 281 281 281 282 282 282 282 282 281 281 280 280 280 279
287 288 287 287 288 288 288 287 286 285 285 284 284 284 285 286 286 286 286 286 286 286 286 285 285 285 286 286 286 286 286 287 287 287 286 286 286 286 286 285 285 284 284 283 283 283 282 282 282 281 281 281 281 281 281 281 281 281 281 281 281 281 281 281 281 280 280 280 280 280 280 280 280 280 280 280 280 280 280 279 279 279 279 278 278
287 287 287 287 287 287 286 285 285 284 283 283 282 283 284 284 284 285 285 286 286 286 285 285 285 284 285 285 285 285 285 286 286 286 286 286 285 285 285 285 284 284 284 284 283 283 282 282 282 281 281 281 280 280 280 280 280 280 280 280 280 280 280 280 280 280 279 279 279 280 280 279 279 279 279 279 279 279 279 278 278 277 277 277 277
287 286 286 286 286 285 283 283 283 283 283 283 282 282 282 282 283 284 284 285 285 286 285 284 284 284 284 284 284 284 285 285 285 285 285 285 285 284 284 284 284 284 283 283 283 283 282 282 281 281 281 280 280 280 280 280 280 279 279 279 279 279 279 279 279 279 278 278 278 279 279 279 279 278 278 279 278 277 277 277 276 276 276 276 276
286 285 285 285 283 282 281 281 282 282 282 282 281 281 281 281 282 282 282 282 283 284 284 283 283 283 283 283 283 283 284 284 284 284 284 284 284 284 284 284 283 283 283 283 283 282 282 281 281 281 281 280 280 280 280 279 279 279 279 279 278 278 278 278 278 278 278 278 278 278 278 278 278 277 277 277 276 276 276 276 276 276 276 276 276
284 284 284 283 281 281 280 280 281 281 280 279 278 279 279 279 279 279 279 280 281 282 282 282 282 281 282 282 283 283 283 283 283 283 283 283 283 283 283 283 283 283 282 282 282 282 281 281 281 281 280 280 280 280 280 279 279 279 278 278 278 278 277 277 277 277 277 277 277 277 277 277 277 277 276 276 276 276 276 275 275 275 275 275 276
282 283 282 281 280 280 279 280 280 279 278 277 276 276 277 277 277 277 278 279 280 280 280 280 280 281 281 282 282 282 282 282 282 282 282 282 282 282 282 283 282 282 282 282 281 281 281 281 281 280 280 280 280 279 279 279 279 278 278 278 278 277 277 277 276 276 276 276 276 276 276 276 277 277 276 275 276 276 275 275 275 275 275 275 275
282 282 280 280 280 279 278 278 278 277 276 276 275 275 276 276 276 276 277 278 279 279 279 280 280 281 282 282 282 282 282 282 281 281 281 282 282 282 282 282 282 282 281 281 281 281 280 280 280 280 280 279 279 279 279 278 278 278 277 277 277 277 277 276 276 276 276 276 276 276 276 276 276 276 276 276 275 275 275 275 274 274 274 274 274
281 281 280 279 279 277 276 276 276 276 275 274 274 274 275 276 276 276 276 277 278 278 278 279 280 281 282 282 282 282 281 281 280 280 281 281 281 281 281 281 281 281 281 281 281 280 280 280 280 279 279 279 279 278 278 278 277 277 277 277 277 277 277 276 276 276 276 275 275 275 275 276 276 276 276 276 275 275 274 274 274 274 274 274 274
281 281 279 279 277 275 275 275 275 275 274 273 274 274 275 275 275 276 276 277 277 278 278 279 280 281 282 282 282 281 280 280 279 279 280 281 281 281 280 280 280 280 281 280 280 280 280 279 279 279 279 278 278 278 277 277 277 276 276 276 276 276 276 276 276 276 275 275 275 275 275 275 275 275 275 276 275 275 274 274 274 274 274 274 274
281 280 278 277 275 274 274 274 274 274 273 273 274 274 274 275 275 276 276 277 277 277 278 278 280 281 281 281 280 280 279 278 278 279 279 280 280 280 280 280 280 280 280 280 280 280 279 279 278 278 278 278 278 277 277 276 276 275 275 275 275 275 275 275 275 275 275 275 274 275 275 275 275 275 275 275 275 275 274 274 274 274 274 274 274
280 278 277 275 274 273 273 273 273 273 273 273 274 274 274 275 275 276 276 277 277 277 277 278 279 280 280 280 279 279 278 277 277 278 278 279 279 279 279 279 279 280 280 280 280 279 279 278 278 278 278 277 277 277 276 276 275 275 275 275 275 275 274 274 274 274 274 274 274 274 274 274 274 274 274 274 275 275 275 275 275 274 274 274 274
279 277 275 274 273 273 272 272 273 273 273 273 274 274 274 274 275 275 276 276 276 277 277 278 279 279 279 279 278 277 276 276 277 277 278 278 279 279 279 279 279 279 279 279 279 279 278 278 278 277 277 277 277 277 276 276 275 275 274 274 274 274 274 274 274 274 273 273 273 273 273 273 273 273 273 274 274 275 275 275 274 274 274 273 273
277 275 274 273 273 272 271 272 273 273 273 273 273 274 274 274 275 275 275 275 276 276 276 277 278 278 278 277 276 276 276 276 276 276 277 278 278 278 278 278 278 278 278 278 278 278 278 278 277 277 277 276 276 276 276 275 275 274 274 274 273 273 273 273 273 273 273 273 273 273 273 273 273 273 273 273 273 274 274 274 274 274 273 273 273
275 274 273 273 272 271 271 272 272 272 273 273 273 273 274 274 274 274 274 275 275 275 276 276 277 277 276 276 275 275 275 275 275 276 276 277 277 277 278 278 278 278 278 278 278 278 277 277 277 277 276 276 276 276 275 275 274 274 274 273 273 273 272 273 273 273 272 272 272 272 272 272 273 273 273 273 273 274 274 274 274 274 273 273 273
274 273 272 272 272 271 271 272 272 272 273 273 273 273 273 274 274 274 274 274 275 275 275 275 275 274 274 275 275 275 275 275 275 275 275 275 276 276 277 277 278 278 278 277 277 277 277 277 276 276 276 276 276 275 275 274 274 274 273 273 272 272 272 272 272 272 272 271 271 271 271 271 272 272 272 273 273 274 274 274 274 274 273 273 273
273 272 272 272 271 271 271 272 272 272 272 272 273 273 273 274 273 273 273 274 274 275 275 274 273 273 273 273 273 274 275 274 274 274 274 274 274 275 275 276 277 277 277 277 277 277 276 276 276 276 276 276 276 275 275 274 274 273 273 272 272 272 273 272 272 271 271 271 271 271 271 271 271 272 272 273 273 273 274 274 274 274 274 274 273
272 272 271 271 271 271 271 271 272 272 272 272 272 273 273 273 273 273 273 273 274 274 274 273 273 272 272 272 273 273 274 274 274 274 274 273 273 274 274 275 275 276 276 277 277 276 276 276 276 276 276 275 275 275 274 274 273 273 273 272 272 273 272 272 271 271 270 270 270 270 270 270 271 272 272 273 273 273 273 273 274 274 274 274 274
272 271 271 270 270 271 271 271 271 271 271 272 272 272 272 272 272 272 272 273 273 274 274 273 272 272 271 271 272 272 272 272 272 273 273 273 273 273 273 273 274 274 275 276 276 276 276 275 275 275 275 275 275 275 274 273 273 273 273 273 273 272 271 271 271 270 270 269 269 269 270 270 271 271 272 272 272 273 273 273 273 273 274 274 273
271 270 270 270 270 271 271 271 271 271 271 271 272 272 272 272 272 272 272 272 273 274 273 272 272 271 271 271 271 271 271 271 271 272 273 272 272 272 272 272 273 273 274 275 275 276 275 275 275 275 275 275 274 274 274 273 273 272 272 272 272 271 271 270 270 269 269 269 269 269 269 269 270 271 271 272 272 272 272 273 273 273 273 273 273
270 270 270 270 270 270 270 270 270 270 271 271 271 271 271 271 271 271 272 272 273 273 273 272 272 271 271 271 271 271 271 270 271 271 272 272 272 272 272 272 272 272 273 274 275 275 275 275 275 274 274 274 274 273 273 273 272 272 272 272 271 271 270 270 269 269 269 268 268 268 268 269 269 270 270 271 271 271 272 272 272 272 272 272 272
270 269 269 270 270 270 270 270 270 270 270 271 271 271 271 271 271 271 271 272 272 272 272 272 272 271 271 271 271 271 271 270 270 270 271 271 271 271 271 271 271 271 272 273 274 274 275 275 274 274 274 273 273 273 272 272 272 272 271 271 271 270 270 269 269 269 268 268 268 268 268 268 269 269 270 270 270 271 271 271 271 271 271 271 271
270 269 269 270 270 270 270 270 270 270 270 270 271 271 271 271 271 271 271 271 271 272 272 272 271 271 271 271 271 271 271 270 270 270 270 270 270 270 270 271 271 271 271 272 273 274 274 274 274 273 273 273 272 272 272 271 271 271 271 271 270 270 269 269 269 268 268 268 268 268 268 268 268 268 269 269 269 270 270 270 270 271 271 271 271
269 269 269 269 270 270 270 270 269 270 270 270 270 271 271 270 270 270 271 271 271 271 271 271 271 271 271 271 271 271 271 271 270 270 270 270 270 270 270 270 270 271 271 272 273 273 274 274 273 273 272 272 272 271 271 271 271 270 270 270 270 270 269 269 269 268 268 268 268 268 268 268 268 268 268 268 269 269 270 270 270 271 271 270 270
269 269 269 269 269 270 270 269 269 270 270 270 270 270 270 270 270 270 270 270 270 270 271 271 271 272 271 271 271 271 271 271 271 270 271 270 270 270 270 270 270 270 271 271 272 273 273 273 272 272 272 271 271 271 270 270 270 270 270 270 270 269 269 269 269 269 268 268 268 268 268 268 268 268 268 269 269 269 270 270 270 270 270 269 269
269 269 269 269 269 269 269 269 269 270 270 270 270 270 270 270 270 270 270 270 270 270 270 271 271 272 272 271 271 271 271 271 271 271 271 270 270 270 270 270 270 270 271 271 272 272 272 272 272 271 271 271 270 270 270 270 270 270 270 269 269 269 269 268 269 269 269 269 268 268 268 268 268 269 269 269 269 269 270 270 270 269 269 269 268
269 269 269 269 269 269 269 269 270 270 270 270 270 270 270 270 270 270 270 270 270 270 270 271 271 271 272 272 271 271 271 271 270 270 271 270 270 270 270 270 271 271 271 271 271 271 271 271 271 271 270 270 270 270 269 269 269 269 269 269 269 269 269 268 269 269 269 269 269 269 269 269 269 269 269 269 269 269 269 269 269 269 269 268 268
269 269 269 269 269 269 269 269 270 270 270 270 270 270 270 270 270 270 270 269 269 269 270 270 270 270 271 271 271 271 271 270 270 270 270 270 270 270 270 270 270 271 271 271 271 271 271 270 270 270 270 270 269 269 269 269 269 269 269 269 269 269 269 268 269 269 269 269 269 269 269 269 269 269 269 269 270 270 269 269 269 269 268 268 268
269 269 269 269 269 269 269 270 270 270 270 270 270 270 270 270 270 270 270 269 269 269 269 269 269 270 270 270 271 271 271 270 270 270 270 270 270 270 270 270 270 270 271 271 271 271 270 270 270 270 270 269 269 269 269 269 269 269 269 269 269 269 269 269 269 269 269 269 269 269 269 269 269 269 269 269 270 269 269 269 269 269 268 268 267
270 270 269 269 269 269 270 270 270 270 270 270 270 270 270 270 270 270 270 269 269 269 269 269 269 269 269 270 271 270 270 270 270 270 270 270 270 270 269 269 270 270 271 271 271 270 270 270 270 270 269 269 269 269 269 269 269 269 269 269 269 269 269 269 269 269 269 269 269 269 269 269 269 269 269 269 269 269 269 269 269 269 268 268 268
271 271 270 270 269 270 270 270 270 270 270 270 270 270 270 270 270 270 270 269 269 269 269 269 269 269 269 270 270 270 270 270 270 270 269 269 269 269 269 269 270 270 271 271 271 270 270 270 270 270 269 269 269 269 269 269 269 269 269 269 269 269 269 268 268 268 269 269 268 268 268 268 268 268 269 269 269 269 269 269 268 268 268 267 268
273 272 271 270 270 270 270 270 270 270 270 270 270 270 270 270 270 270 270 269 269 269 269 269 269 269 269 269 269 270 270 270 270 269 269 269 269 269 269 269 269 270 270 270 270 270 270 270 270 270 269 269 269 269 269 269 269 269 269 269 269 269 269 268 268 268 268 268 268 268 268 268 268 269 269 269 269 268 268 268 268 268 268 267 267
273 273 272 271 270 270 270 270 270 270 270 270 270 270 270 270 270 270 270 270 269 269 269 269 269 269 269 269 269 269 269 269 269 269 269 269 269 269 268 269 269 269 270 270 270 270 270 270 270 270 269 269 269 269 269 269 269 269 269 269 269 269 269 268 268 268 268 268 268 268 268 268 268 268 268 268 268 268 268 268 268 268 268 267 267
274 274 273 272 271 270 270 270 271 271 270 270 270 270 270 270 270 270 270 269 269 269 269 269 269 269 269 269 269 269 269 269 269 269 269 269 269 269 268 268 268 269 269 269 269 270 270 270 270 270 270 270 269 269 269 269 269 269 269 269 269 268 268 268 268 268 268 268 268 268 268 268 268 268 268 268 268 268 268 268 268 268 267 267 266
274 274 273 272 271 271 270 270 270 270 270 270 270 270 270 270 270 270 269 269 269 269 269 269 269 269 269 269 269 269 269 269 269 269 269 269 269 269 268 268 268 268 269 269 269 269 269 269 269 270 270 270 270 270 269 269 269 269 269 269 268 268 268 268 268 268 268 268 268 268 268 268 268 268 268 268 268 268 269 268 268 267 267 267 266
275 274 273 273 272 271 270 270 270 270 270 270 270 270 270 270 269 269 269 269 269 269 269 269 269 269 269 269 269 269 269 269 269 269 269 269 269 269 269 269 268 268 268 269 269 269 269 269 269 269 269 269 270 270 270 269 269 269 269 269 269 269 268 268 269 269 269 269 269 269 269 269 269 269 268 268 268 269 268 268 268 267 267 266 266
275 275 274 273 272 271 271 270 270 270 270 270 270 270 270 269 269 269 269 269 269 269 269 269 269 269 269 269 269 269 269 269 269 269 269 269 269 269 269 269 269 268 268 268 268 269 269 268 269 269 269 269 269 269 269 269 269 269 269 269 269 269 269 269 269 269 269 269 269 269 269 269 269 269 268 268 269 268 268 268 267 267 266 266 266
275 275 274 273 272 271 271 270 270 270 270 270 270 270 269 269 269 269 269 269 269 269 269 269 269 269 269 269 269 269 269 269 269 269 269 269 269 269 269 269 269 269 268 268 268 268 268 268 268 268 269 269 269 269 269 269 269 269 269 269 269 270 270 270 270 270 270 269 269 269 269 269 269 269 269 269 268 268 267 267 266 266 266 266 265
276 275 274 273 272 271 270 270 270 270 270 270 270 269 269 269 269 269 269 269 269 269 268 269 269 269 269 269 269 269 269 269 269 269 269 269 269 269 269 269 269 269 269 269 268 268 268 268 268 268 268 268 268 268 268 269 269 269 269 269 269 270 270 270 270 270 269 269 269 269 269 269 269 268 268 268 268 267 267 266 266 266 266 265 265
276 276 275 274 273 272 270 270 270 270 270 270 269 269 269 269 269 269 269 268 268 268 268 268 269 269 269 269 269 269 269 269 269 269 269 269 269 269 269 269 269 269 269 269 269 269 268 268 268 268 268 268 268 268 269 269 269 269 269 269 269 269 270 269 270 269 269 269 269 269 269 269 268 268 268 268 267 267 266 266 266 266 265 265 265
277 276 275 274 273 272 271 271 270 270 270 270 269 269 269 269 269 269 268 268 268 268 268 268 268 268 268 268 268 269 269 269 269 269 269 269 269 269 269 269 269 269 269 269 269 269 269 269 268 268 268 268 269 269 269 269 269 269 269 269 269 269 269 269 269 269 269 269 269 269 269 269 268 268 268 267 267 266 266 266 266 266 265 265 264
277 277 276 275 274 273 272 271 271 270 270 270 269 269 269 269 269 268 268 268 268 268 268 268 268 268 268 268 268 268 268 269 269 269 269 269 269 269 269 269 269 269 269 269 269 269 269 269 269 269 268 269 269 269 269 269 269 269 269 269 269 269 269 270 269 269 269 269 269 269 269 268 268 268 267 267 267 266 266 266 266 265 265 265 264
277 276 276 276 275 274 273 271 271 271 270 269 269 269 269 268 268 268 268 268 268 268 268 268 267 267 268 268 268 268 268 268 269 269 269 269 269 269 269 269 269 269 269 269 269 269 269 269 269 269 269 269 269 269 269 269 269 269 269 269 269 269 269 269 269 269 269 269 269 269 269 268 268 268 267 267 266 266 266 266 265 265 265 264 264
276 276 276 276 275 274 273 272 271 270 270 270 269 269 269 268 268 268 268 268 268 267 267 267 267 267 267 267 267 268 268 268 268 269 269 269 269 269 269 269 269 269 269 269 269 269 269 269 269 269 269 269 269 269 269 269 269 269 269 269 269 269 269 269 269 269 270 269 269 268 268 268 268 267 267 267 266 266 266 266 265 265 265 264 264
277 276 276 276 275 275 274 272 271 270 270 270 269 269 269 268 268 268 268 267 267 267 267 267 267 267 267 267 267 267 267 267 268 268 268 268 268 269 269 269 269 269 269 269 269 269 269 269 269 269 269 269 269 269 269 269 269 269 269 269 269 269 269 269 269 269 269 269 268 268 268 267 267 267 267 266 266 266 266 265 265 265 264 264 264
277 277 276 276 276 275 274 273 272 271 270 270 269 269 269 268 268 268 268 267 267 267 267 267 267 267 267 266 266 266 266 267 267 267 267 267 268 268 268 269 269 269 269 269 269 269 269 269 269 269 268 269 269 269 269 269 269 269 269 269 269 269 269 269 269 269 268 268 268 268 267 268 268 267 267 267 266 265 265 265 265 264 264 263 263
278 277 276 276 276 275 274 273 272 272 271 270 269 269 269 268 268 268 268 267 267 267 267 267 267 267 267 266 266 266 266 266 266 266 266 266 267 267 268 268 268 269 269 269 269 269 269 269 268 268 268 268 269 269 269 269 269 269 269 269 269 268 268 269 269 268 268 268 267 267 267 267 268 268 267 267 266 265 265 265 264 264 264 263 263
278 277 277 276 276 275 274 273 273 272 271 270 270 269 269 268 268 268 268 268 267 267 266 266 266 266 266 266 266 266 266 266 266 266 266 266 266 267 267 268 268 268 268 268 268 268 268 268 268 268 268 268 268 269 269 269 269 269 269 269 269 269 269 269 268 268 268 268 268 267 267 268 267 267 267 266 265 265 265 264 264 264 263 263 263
Wind_Speed
22 22 21 19 19 19 19 20 20 20 21 21 20 19 16 13 11 10 10 9 9 10 12 13 14 15 17 18 19 20 20 21 21 23 24 26 28 29 31 31 32 33 33 33 33 33 35 36 36 36 34 34 34 34 34 33 33 32 30 28 27 25 24 21 16 14 17 19 19 18 18 18 20 22 23 25 27 29 32 33 34 34 34 33 33
23 22 21 20 19 18 17 18 18 18 20 21 22 21 20 18 16 13 12 10 9 10 10 11 12 14 16 18 19 21 21 21 22 22 23 25 26 27 29 29 30 31 30 31 32 32 33 34 35 34 32 33 34 33 33 32 32 33 33 32 31 30 27 25 22 18 18 20 22 22 22 22 23 23 23 24 24 25 28 31 32 33 34 33 33
24 23 21 21 20 19 18 17 17 16 17 20 22 22 20 20 18 17 15 13 12 10 10 10 11 12 14 17 19 20 22 22 23 23 24 24 25 26 27 28 29 30 31 31 32 31 31 32 33 33 31 32 32 32 32 32 31 32 33 33 33 33 32 31 28 23 21 21 22 22 23 24 25 26 25 26 25 24 27 29 31 32 33 33 33
23 23 22 21 20 20 20 18 16 17 18 20 22 21 19 19 19 18 18 17 15 13 11 11 11 12 13 15 18 20 21 22 23 24 24 24 25 25 26 27 28 29 30 31 31 31 31 31 32 32 31 31 32 31 31 31 31 32 32 32 33 34 33 33 32 28 25 23 22 22 23 23 25 25 25 26 26 26 27 28 30 31 32 33 33
24 22 22 21 21 20 19 18 18 20 21 22 22 19 17 18 18 18 18 18 18 16 14 13 12 12 13 14 16 18 20 22 23 24 25 25 25 26 26 27 28 28 29 30 30 30 31 31 31 30 30 31 31 31 31 31 31 31 32 31 31 31 31 31 32 31 28 25 23 23 23 23 24 24 24 25 26 27 27 28 29 30 30 31 31
23 22 22 22 20 19 20 20 21 22 23 24 23 20 18 18 18 18 18 18 19 18 18 17 15 14 14 14 15 16 18 20 22 24 25 25 26 26 27 27 28 28 29 29 30 30 31 32 32 31 31 32 32 31 30 30 30 31 31 30 29 29 28 28 29 29 28 27 25 24 23 23 23 23 23 24 25 26 26 26 27 28 28 30 31
22 22 22 20 20 21 24 23 22 23 23 22 23 22 21 20 19 18 18 18 18 19 20 20 19 17 16 15 15 15 16 18 20 22 24 25 26 27 28 28 28 29 29 29 29 30 31 32 32 32 32 32 32 31 30 29 29 30 30 30 28 27 26 26 26 26 26 25 24 23 23 23 23 23 23 23 24 25 25 25 25 26 28 30 31
21 22 20 19 21 25 26 25 23 22 22 22 23 22 21 20 19 19 19 18 18 18 19 20 20 20 19 17 16 15 15 17 18 20 22 24 25 27 28 28 29 29 29 30 30 30 31 31 32 32 32 32 32 31 30 30 29 29 29 29 28 27 26 26 25 24 24 23 22 22 21 20 20 21 22 21 21 23 26 26 24 25 28 30 31
21 20 18 20 24 26 26 25 23 22 23 24 24 22 21 20 20 20 18 17 17 17 18 19 20 20 19 18 17 16 16 16 17 18 20 22 24 26 27 28 29 29 29 30 30 31 31 31 32 31 32 32 31 31 31 30 30 29 29 29 28 27 27 25 24 23 22 21 20 20 18 18 19 20 20 22 24 25 25 25 23 22 24 27 30
20 17 19 23 24 24 25 23 22 23 24 25 24 23 22 21 21 20 18 17 17 17 18 18 18 17 17 17 17 16 16 16 16 17 18 19 21 23 25 27 28 29 29 30 30 31 31 31 31 31 31 31 31 31 31 31 31 31 30 29 29 28 27 25 25 23 21 19 19 18 16 16 19 20 21 23 25 24 22 22 24 22 20 21 23
19 18 22 24 22 23 24 22 21 22 23 24 23 22 22 21 21 21 19 18 18 18 18 18 17 16 16 16 16 16 17 18 18 17 16 17 19 21 23 25 26 28 29 30 31 31 31 31 31 31 30 30 30 30 30 31 31 31 31 30 29 29 29 27 25 24 22 20 18 17 16 17 19 19 20 21 23 24 23 23 23 22 19 16 14
18 17 21 21 20 24 24 22 22 22 22 23 22 21 21 20 21 21 20 19 19 18 19 18 18 18 17 17 16 16 17 20 20 18 16 16 17 18 21 23 25 27 28 30 31 31 30 30 30 30 30 30 30 30 30 31 31 31 31 31 30 31 31 29 27 25 23 21 19 19 19 19 17 17 19 20 21 23 23 23 23 23 21 18 16
16 16 19 19 21 23 22 21 21 21 22 22 21 20 20 19 19 20 19 19 19 20 20 19 19 19 18 16 15 16 19 21 20 18 17 16 15 16 19 21 24 26 28 29 30 30 30 29 29 29 29 29 29 29 29 29 30 30 30 30 31 32 32 32 30 28 26 23 21 21 22 19 18 17 18 19 20 21 22 23 23 23 22 21 21
15 16 19 20 21 22 22 21 21 21 22 21 19 20 19 19 19 20 19 19 20 20 21 20 19 18 17 16 17 19 21 21 20 18 16 15 15 15 16 19 23 25 27 28 29 29 29 29 28 28 28 28 28 28 28 28 28 28 29 30 32 32 32 32 32 31 29 27 25 25 23 20 18 17 17 17 20 22 22 23 24 24 24 23 21
15 17 19 20 21 21 21 21 20 21 21 20 19 19 19 20 21 20 19 19 19 20 20 20 19 18 18 17 18 20 21 21 19 17 16 15 14 15 15 17 20 24 27 28 29 29 28 27 27 27 27 27 27 27 27 27 27 26 27 29 30 31 31 31 32 31 31 30 30 29 26 23 20 18 17 16 18 20 22 23 24 24 24 21 18
16 18 20 21 21 21 21 20 20 20 20 20 20 20 21 21 21 20 20 19 19 19 20 20 19 19 18 17 18 20 21 19 18 17 16 15 14 15 15 16 18 22 26 27 27 27 27 27 26 26 26 26 26 26 26 26 26 26 27 28 28 28 29 30 29 29 30 30 31 31 29 26 24 21 19 17 16 18 20 21 21 21 19 16 15
17 20 22 21 21 21 20 19 19 20 20 20 20 21 22 22 21 21 21 20 20 20 20 20 19 18 18 18 19 21 20 19 18 17 15 14 14 14 16 17 18 21 24 24 25 25 26 26 25 25 25 25 25 24 24 24 25 26 27 27 26 26 27 26 25 26 27 28 29 29 26 25 23 21 19 18 17 18 20 20 19 20 18 12 11
20 23 23 21 20 20 19 18 18 19 19 20 21 22 22 21 21 22 21 20 20 20 20 20 18 18 18 19 20 21 20 19 18 17 16 14 14 14 15 17 18 20 21 22 23 24 24 24 24 24 24 24 23 23 23 23 24 25 26 26 25 25 25 23 22 23 24 24 25 25 24 23 22 20 19 20 19 19 21 22 21 21 19 14 11
23 24 22 20 20 20 18 18 18 18 19 19 20 21 21 20 21 22 21 19 19 19 19 19 19 20 19 19 19 20 20 20 18 17 17 16 14 14 14 16 17 19 19 20 21 21 21 21 21 22 22 22 22 22 22 22 23 24 24 23 24 26 24 22 21 22 21 20 21 21 21 22 22 20 19 20 20 20 21 23 24 23 21 19 15
23 23 21 19 19 18 18 18 18 17 18 19 20 20 19 19 21 22 20 19 19 19 18 20 22 23 21 19 18 18 19 20 19 18 18 17 16 15 15 15 16 17 18 19 19 19 19 19 19 19 20 20 20 21 22 21 21 22 22 22 23 24 22 21 21 20 19 19 19 18 18 19 20 19 19 20 20 20 22 24 24 23 21 21 18
22 22 20 18 18 18 18 18 18 17 17 18 19 19 18 19 21 21 19 19 18 17 17 21 24 24 23 20 17 17 19 20 20 20 20 19 17 15 15 15 15 16 17 18 18 17 17 17 17 17 18 18 19 20 21 21 20 21 22 22 22 21 19 18 18 17 17 17 17 17 17 17 18 19 21 22 21 21 23 24 22 20 19 18 17
22 21 19 18 18 18 18 18 17 17 17 17 18 19 19 20 21 20 19 19 18 15 16 20 23 24 24 22 18 17 18 19 19 20 20 19 18 16 15 15 15 15 16 17 17 17 16 16 16 16 16 16 17 19 20 20 19 20 20 20 20 19 18 16 14 14 15 16 16 16 17 17 18 18 21 23 22 21 23 22 20 19 18 18 18
21 18 17 18 17 17 18 17 17 18 18 17 18 19 19 20 21 19 19 19 17 15 16 19 21 21 23 23 21 19 19 20 19 19 20 19 18 17 16 16 14 14 15 16 16 17 16 15 14 14 14 14 15 16 18 19 18 19 19 19 18 18 17 14 13 13 14 15 15 16 17 19 20 19 20 22 22 22 21 21 20 19 18 17 18
19 17 17 18 17 17 17 17 17 17 17 17 19 19 20 21 20 20 19 18 16 15 16 18 19 18 19 21 21 21 21 21 19 18 19 20 19 19 19 18 16 14 13 14 14 15 16 14 12 11 11 12 12 14 15 16 17 17 17 17 17 16 15 13 13 13 14 15 16 16 17 19 21 21 21 21 21 21 21 21 20 20 19 19 18
19 17 17 17 16 17 17 16 17 17 17 17 19 19 20 20 20 20 19 17 15 15 17 18 18 17 17 18 19 21 22 21 20 19 20 20 21 21 19 18 17 14 13 12 12 13 15 13 10 8 8 9 10 10 12 13 14 15 15 15 16 15 14 13 13 13 15 16 16 16 17 18 20 22 22 22 22 22 22 22 22 21 20 21 21
19 17 16 16 16 16 16 17 17 17 17 17 18 18 19 20 20 20 19 17 16 16 17 18 18 17 16 17 18 20 21 21 20 20 21 22 23 22 20 18 17 15 12 11 10 11 12 10 8 6 6 7 7 7 9 10 11 12 12 13 14 14 14 14 14 15 16 16 15 15 16 16 18 19 20 21 22 22 22 21 21 20 20 20 20
18 17 16 15 15 15 16 17 18 18 18 18 18 18 18 19 20 20 19 18 18 18 18 18 18 17 16 17 18 19 20 20 20 21 21 22 24 23 21 19 17 15 12 10 8 9 10 8 6 5 5 5 5 6 7 8 9 10 11 11 13 13 13 14 15 15 15 15 14 14 14 14 15 16 18 19 19 19 18 17 17 16 15 15 16
17 16 15 15 15 15 15 16 17 18 19 18 18 17 18 19 20 19 19 19 19 19 19 19 19 19 18 18 18 19 19 19 20 21 21 20 21 21 20 19 17 15 13 9 7 8 8 7 6 6 5 5 6 6 7 7 8 9 10 11 11 12 12 12 13 14 15 14 14 13 13 13 14 15 15 16 16 15 14 13 12 12 11 11 13
16 15 15 15 14 14 15 15 16 18 18 19 18 17 17 18 18 18 18 19 18 19 19 20 21 21 19 19 18 18 19 20 20 20 19 18 18 18 17 16 15 13 12 10 7 7 8 7 7 6 6 6 7 7 6 7 7 8 10 11 11 11 11 12 13 13 14 15 14 13 13 13 13 13 13 13 13 12 11 11 11 11 11 12 14
16 15 15 15 14 15 15 15 16 18 19 20 20 18 17 18 17 17 18 19 18 16 16 17 19 20 20 19 18 18 19 21 21 20 18 18 17 16 14 13 12 11 10 8 6 7 8 8 8 7 7 7 7 7 7 7 8 9 9 11 12 11 11 12 13 13 13 14 14 13 12 12 12 12 12 12 11 11 11 11 11 11 12 13 15
16 16 16 15 14 14 15 16 17 18 18 19 20 20 20 19 18 17 17 19 18 16 15 16 17 17 18 19 19 19 19 20 20 19 18 18 17 15 14 12 11 10 9 7 6 7 7 7 8 8 8 8 7 8 8 8 9 9 9 10 12 12 12 12 12 12 12 13 12 11 11 11 12 11 11 11 10 10 11 11 11 12 13 14 16
15 16 16 15 14 14 15 15 16 17 18 19 19 19 20 20 20 20 19 19 18 16 16 18 19 18 17 17 18 18 19 19 19 18 18 17 17 15 14 12 10 8 7 5 6 7 7 7 7 8 8 8 8 8 8 8 9 10 10 10 11 12 12 12 12 12 12 11 11 11 11 11 11 11 10 10 11 11 11 12 12 13 14 15 17
14 15 14 14 14 14 14 15 16 17 18 19 19 19 19 19 21 23 23 21 19 18 19 21 22 20 17 16 16 17 18 18 18 17 17 17 16 15 14 13 10 7 4 5 6 6 6 7 7 8 9 9 9 8 8 9 9 10 10 11 11 12 12 12 11 12 13 12 12 12 12 12 11 11 11 11 12 12 12 12 13 13 14 16 18
13 12 12 12 13 14 14 15 16 17 17 18 18 18 19 19 19 21 22 22 22 22 22 24 24 22 19 17 16 16 17 18 18 17 17 16 15 14 14 12 9 5 2 5 5 4 5 6 7 8 9 9 9 8 9 9 9 10 10 11 11 11 11 11 12 12 13 13 13 13 13 13 12 12 13 13 13 13 13 14 14 14 15 17 18
12 10 10 10 11 13 13 14 15 16 17 17 18 18 19 19 19 19 19 19 20 22 23 25 25 23 20 18 17 17 18 18 18 16 15 15 15 15 13 11 10 6 1 3 2 3 4 6 7 8 9 9 9 9 9 9 9 10 10 11 11 11 11 11 12 12 12 13 13 13 13 14 14 14 14 14 14 15 16 16 16 16 17 17 19
12 10 9 9 10 12 13 13 14 15 16 17 18 18 18 19 19 19 19 19 19 20 22 23 24 24 22 20 18 18 18 19 18 16 14 14 15 14 12 11 11 9 5 2 2 3 4 5 7 8 9 9 9 9 9 8 8 9 9 10 10 10 11 11 11 12 12 13 13 13 14 14 15 15 15 16 17 17 17 17 17 17 18 18 18
12 10 10 10 10 11 12 12 13 13 15 16 17 18 19 19 19 19 19 20 20 20 21 22 23 24 24 22 20 19 18 19 18 16 13 12 13 12 10 9 9 9 8 6 5 5 5 5 6 7 8 9 8 8 7 7 6 7 8 8 9 9 10 11 11 12 13 13 14 14 15 15 15 16 16 17 17 17 17 18 18 18 18 17 17
10 9 9 10 10 11 12 13 13 13 14 15 16 18 19 20 20 19 20 20 20 20 21 21 22 23 24 23 22 20 19 19 19 18 16 13 12 11 11 9 8 8 9 8 7 7 7 7 7 6 5 6 7 7 6 5 5 6 6 7 7 8 9 10 11 12 13 14 14 14 15 15 15 15 16 17 18 18 18 18 18 18 18 17 17
9 8 8 8 9 10 12 13 14 14 15 16 16 17 19 20 20 20 20 20 20 20 20 21 21 22 23 24 23 20 19 18 19 19 18 16 14 12 11 10 9 9 9 8 7 7 7 8 7 5 4 5 6 6 6 5 5 6 6 7 7 8 8 9 11 11 12 13 13 13 13 14 14 14 15 17 18 18 18 18 17 17 17 17 17
10 9 8 8 9 10 11 12 13 13 14 15 16 17 18 19 19 20 20 20 20 19 20 20 21 22 23 23 22 20 19 18 18 18 17 17 16 14 11 10 9 9 10 9 8 7 7 7 7 7 5 6 6 6 6 6 6 7 7 8 9 10 10 10 11 11 11 11 12 12 12 12 12 13 15 16 17 17 17 17 16 16 16 17 18
11 9 8 8 8 9 10 11 11 12 13 14 15 16 17 18 18 19 20 20 20 20 20 20 21 22 22 21 20 19 18 18 18 17 17 17 17 16 13 11 10 10 10 10 9 8 7 7 8 8 8 8 8 8 7 8 8 8 8 9 10 11 12 12 12 12 12 12 12 13 12 12 12 13 15 15 15 15 16 16 16 16 17 18 18
11 10 9 8 8 9 10 11 11 11 12 13 14 15 16 17 18 18 19 19 19 20 20 20 21 21 21 21 20 19 18 17 17 16 16 17 17 16 14 12 11 11 12 12 10 9 8 8 8 9 9 9 9 9 9 9 9 9 10 11 11 12 12 12 13 13 13 13 14 14 13 13 14 15 15 15 15 15 15 16 16 17 17 18 18
11 10 9 9 8 8 9 10 11 11 12 13 14 14 15 16 17 17 18 19 19 19 20 20 21 21 21 21 20 19 18 18 17 17 16 16 17 17 16 14 13 12 12 12 12 10 9 9 9 10 10 9 9 9 10 10 10 11 11 11 11 12 12 13 13 13 13 14 14 14 14 14 14 14 14 14 14 15 16 16 17 17 17 18 18
11 11 10 9 8 8 8 9 10 11 11 12 13 13 14 15 16 17 18 19 19 19 19 20 21 21 21 21 21 19 19 19 18 17 17 16 16 17 17 15 14 12 11 12 12 11 10 10 10 10 11 10 9 9 10 10 11 11 11 11 11 12 12 13 13 12 13 13 14 14 14 14 13 13 13 13 13 15 16 16 17 18 18 18 18
11 11 10 10 9 8 8 9 10 11 12 12 13 14 14 14 15 16 17 18 19 19 19 19 20 20 20 21 21 20 20 19 19 19 18 17 16 16 16 16 15 13 12 12 11 11 10 10 10 11 11 11 11 11 11 11 11 11 12 12 12 13 12 12 12 12 13 14 14 14 13 13 13 12 13 13 13 15 16 16 17 17 18 19 19
11 11 11 11 10 9 9 9 10 11 12 13 14 15 15 15 15 16 17 18 18 19 19 20 20 20 20 20 20 20 20 20 19 19 19 18 16 15 15 15 15 14 13 12 12 12 12 11 11 11 12 12 12 12 12 12 12 12 13 14 14 15 14 13 13 13 14 14 14 13 12 12 12 12 13 13 14 15 16 16 17 17 18 18 19
12 12 11 12 11 10 10 10 11 12 13 13 14 15 16 16 16 16 16 17 18 18 19 19 20 20 20 19 20 19 19 19 19 19 19 19 18 16 15 15 14 14 14 13 12 12 12 12 12 12 13 13 13 13 13 13 14 14 14 15 15 15 15 14 14 14 13 12 12 11 11 11 11 12 13 13 14 15 16 16 16 17 17 17 17
12 12 12 12 12 11 11 11 12 12 13 14 15 16 16 16 16 16 17 17 17 18 19 20 20 20 20 19 19 18 18 18 18 19 20 20 19 17 16 15 14 14 14 14 13 12 12 12 12 13 14 14 13 13 13 13 13 14 14 14 13 13 13 14 14 13 12 11 11 11 11 12 12 12 13 14 14 15 16 16 16 16 16 16 17
12 12 13 13 13 12 11 12 12 13 14 14 15 16 17 17 17 17 17 17 17 17 18 19 20 20 20 20 19 18 18 18 18 19 20 20 19 18 17 16 15 14 13 14 14 14 13 13 14 14 14 14 13 13 12 12 12 12 13 12 11 11 11 12 12 12 12 12 12 12 12 13 14 14 15 15 15 16 16 16 16 16 16 16 17
12 12 12 13 13 12 11 12 12 13 13 14 15 16 17 17 18 18 18 18 18 17 17 18 19 20 20 20 19 18 18 18 18 19 19 19 18 18 17 17 16 16 15 14 14 14 14 15 15 15 15 15 14 13 13 13 12 12 12 11 11 10 11 11 11 12 12 13 13 14 15 16 16 16 16 16 15 16 17 16 16 16 16 17 17
12 12 12 13 13 12 12 12 13 13 13 14 15 16 17 18 18 18 18 18 18 18 18 18 19 19 19 19 19 18 18 18 18 18 18 18 18 17 17 17 17 17 17 16 15 15 15 15 15 16 16 16 15 15 14 14 13 12 12 12 12 11 11 11 12 12 13 14 15 16 17 17 18 18 17 16 16 16 17 16 16 17 17 17 17
Wind_Direction
7 7 8 10 11 14 16 17 17 17 18 19 18 16 12 5 354 343 332 324 315 304 296 290 286 281 277 274 272 269 267 264 261 258 255 253 251 250 248 247 246 246 246 246 245 245 245 246 246 246 245 245 245 245 243 242 242 241 240 239 238 237 236 237 246 257 252 247 249 251 251 254 254 252 252 250 247 247 248 249 249 250 250 250 249
4 3 5 6 5 5 6 8 10 10 11 10 8 5 4 2 359 353 347 338 325 313 303 296 291 285 280 276 273 270 267 265 263 259 256 254 254 252 251 249 248 247 247 247 246 245 245 246 247 246 244 243 243 243 242 241 240 240 240 240 242 242 240 241 246 255 257 252 251 252 252 252 253 253 253 252 252 250 249 249 248 249 249 249 250
4 4 3 2 2 3 1 1 5 9 9 4 359 355 352 354 355 354 353 349 338 327 314 304 296 288 282 277 273 271 269 266 264 261 259 258 256 255 254 252 250 249 247 247 247 246 245 245 245 244 243 242 242 242 242 241 240 241 241 241 243 244 243 243 247 254 260 258 254 252 251 251 251 253 253 254 256 253 251 249 248 248 247 248 249
4 4 3 2 1 1 0 2 7 9 4 356 351 348 345 346 348 348 347 346 344 340 329 318 308 296 288 281 276 271 269 267 265 263 262 261 259 258 257 255 252 251 249 248 248 247 245 244 244 244 242 242 242 241 240 240 239 241 242 242 243 244 244 243 245 250 257 260 256 252 252 252 252 252 251 251 251 249 248 247 246 246 245 245 246
1 1 2 360 358 1 6 7 5 359 355 352 350 350 348 345 344 344 342 339 339 339 337 333 324 313 301 292 286 279 274 271 268 265 264 262 261 259 258 257 254 253 253 252 251 249 247 246 245 244 242 241 241 240 239 239 239 239 241 242 242 243 244 243 244 247 250 255 256 254 253 252 251 251 248 246 245 243 242 242 241 242 241 241 241
359 0 359 358 1 7 7 2 356 351 350 352 353 354 352 346 342 341 340 335 331 331 333 334 332 326 316 305 296 290 285 280 274 271 268 265 263 261 259 258 256 256 255 255 254 252 250 249 248 245 242 240 240 239 239 238 238 238 239 240 241 242 242 242 243 245 247 251 253 253 251 249 248 247 245 243 242 239 237 237 237 237 236 237 237
0 359 358 2 7 5 360 354 349 348 349 350 350 349 346 344 341 338 335 331 326 325 326 327 327 326 322 316 307 299 294 288 282 278 274 270 267 264 261 259 257 257 257 257 256 254 252 251 249 246 243 242 241 240 239 237 237 238 238 239 239 239 241 242 243 243 245 249 251 250 249 248 247 246 245 243 241 238 235 232 231 231 232 234 235
360 358 2 9 6 358 354 351 348 348 349 347 346 344 342 341 336 331 328 326 324 322 323 323 321 319 319 319 316 311 303 295 288 284 279 275 271 267 264 262 260 259 258 258 257 255 254 252 250 248 246 245 244 242 239 237 236 236 237 237 236 236 237 239 240 241 243 245 247 247 247 246 243 241 241 237 233 233 232 228 228 230 230 232 235
357 359 7 6 358 352 351 350 348 347 345 344 343 343 341 339 336 334 332 330 326 323 321 319 317 315 315 317 316 315 311 304 298 293 286 280 274 270 267 265 262 260 259 259 257 255 254 252 251 250 249 248 247 245 243 240 237 236 236 234 232 232 234 235 236 236 238 241 243 244 243 242 237 233 229 226 227 231 232 228 229 232 233 234 237
354 1 6 358 352 350 348 347 346 345 344 345 345 345 344 342 341 341 341 338 335 331 326 322 319 317 316 317 317 318 317 315 312 307 298 289 281 274 269 266 263 261 259 258 257 256 255 253 253 252 251 250 249 246 245 242 240 239 238 235 232 230 229 231 232 232 233 237 239 238 238 239 236 231 229 230 231 232 231 226 226 229 230 233 240
354 358 357 352 349 348 346 345 344 344 346 347 346 346 345 345 344 343 343 343 340 337 332 329 326 322 317 315 317 320 321 322 322 317 308 299 290 281 273 268 264 261 259 257 257 257 256 255 254 253 252 251 249 248 246 244 242 240 239 238 236 234 231 229 230 230 231 235 238 236 236 240 240 236 235 235 232 230 229 225 224 224 221 224 236
351 352 352 348 348 347 345 344 344 345 346 346 347 348 348 347 346 345 347 346 342 338 335 334 333 330 322 313 311 316 321 324 325 321 311 303 296 286 276 270 265 262 260 258 258 258 257 256 256 254 253 251 250 248 246 244 243 241 239 239 239 239 237 235 234 233 231 234 237 237 237 241 244 240 235 234 231 228 227 226 224 222 221 223 227
346 349 350 348 346 346 346 346 346 345 346 347 349 350 350 349 347 347 347 346 342 340 340 340 339 337 332 323 317 321 325 326 325 321 312 304 298 288 277 269 265 263 261 260 259 258 257 256 255 254 253 252 250 248 246 244 243 241 240 240 240 241 241 240 239 238 237 236 238 240 241 242 243 242 239 236 230 224 221 222 223 223 224 227 230
345 350 349 346 346 346 347 347 346 346 347 350 351 351 350 348 346 346 345 343 342 341 340 342 343 343 341 337 331 329 328 327 325 320 313 306 299 291 280 269 264 263 262 262 261 259 258 256 254 254 254 252 249 247 244 243 241 240 239 239 241 242 242 242 242 241 241 240 240 243 245 244 244 245 245 241 233 225 221 222 224 225 226 229 233
348 350 347 346 347 347 347 347 346 347 349 351 351 350 348 347 345 345 343 341 340 339 339 341 341 338 338 336 332 329 329 329 327 321 315 309 300 295 286 273 265 263 262 261 260 259 259 257 255 254 254 252 251 248 245 242 240 240 240 240 242 243 243 243 243 242 242 241 242 246 247 246 245 244 245 245 241 236 233 232 232 230 227 227 230
351 350 347 347 348 348 347 346 345 347 349 351 350 348 347 346 346 345 343 341 341 341 342 342 338 333 334 336 334 331 332 334 331 325 320 312 302 297 291 279 269 264 263 262 261 260 259 257 256 254 253 253 253 250 247 244 240 239 240 242 243 244 245 246 246 246 246 245 246 247 248 249 248 245 244 243 242 239 235 233 231 226 220 218 222
352 350 347 346 346 347 347 346 345 347 349 349 349 347 346 346 347 346 344 342 343 344 342 342 341 340 340 341 339 335 336 339 336 331 326 318 307 300 294 284 273 268 266 265 263 262 261 258 256 254 253 253 254 252 249 245 241 240 242 243 244 246 248 249 249 250 251 250 250 249 248 249 247 244 241 238 237 235 227 221 219 215 209 209 217
350 347 345 344 344 346 348 348 347 348 349 350 349 347 346 347 347 348 346 344 345 346 346 346 346 346 343 340 339 338 339 341 341 336 331 326 315 305 297 287 277 271 270 269 266 265 263 261 258 255 253 253 254 253 250 245 241 241 242 243 243 245 248 250 251 253 252 251 250 249 247 244 241 238 235 232 232 232 226 221 219 212 205 208 216
346 344 344 342 343 347 350 349 349 350 350 351 351 349 348 348 348 349 349 347 344 346 349 350 347 344 341 339 340 342 342 344 347 344 338 333 325 315 305 295 282 273 271 269 267 266 265 263 260 256 256 256 254 252 250 245 242 242 242 241 241 245 249 252 252 252 251 248 247 245 241 238 234 232 231 228 228 230 230 228 226 217 209 211 213
343 343 344 343 344 348 351 350 351 353 352 352 353 354 353 350 350 351 351 348 346 346 350 350 346 345 345 343 343 346 347 347 348 347 344 341 335 326 318 310 296 283 275 270 267 266 263 262 261 259 259 259 256 253 251 247 244 243 240 238 241 248 255 255 253 252 250 248 246 241 236 232 229 228 227 223 222 226 227 226 226 222 216 215 215
342 343 344 345 347 351 354 353 354 355 354 354 355 357 356 353 352 354 352 350 349 348 348 349 347 347 349 349 349 352 352 349 347 346 347 345 341 335 328 322 315 302 287 275 267 265 264 262 263 263 263 261 258 254 251 249 247 245 241 241 247 254 258 256 253 251 248 245 241 235 228 225 223 220 216 215 218 220 219 218 221 222 222 224 225
343 344 346 348 350 354 356 356 356 356 356 358 357 357 357 355 355 356 355 354 351 347 346 348 347 348 350 352 354 352 348 347 346 344 345 345 344 341 333 324 320 315 303 285 270 265 266 267 268 269 267 263 260 256 252 249 247 244 245 249 253 255 254 255 253 246 241 236 231 225 220 217 214 207 203 207 214 216 215 216 219 224 231 237 237
344 345 348 351 354 356 356 356 357 357 359 0 359 357 357 356 357 358 357 354 348 344 345 346 345 346 348 351 354 350 346 348 351 348 345 346 345 344 339 330 322 317 311 298 281 269 268 272 274 274 270 263 259 256 253 251 246 244 248 252 253 250 248 248 245 237 232 227 222 219 216 213 213 208 200 203 210 215 217 222 228 235 243 246 246
346 348 350 352 354 355 355 356 356 357 0 2 359 358 358 357 357 359 358 352 345 342 342 342 342 344 344 346 349 348 346 350 355 351 345 343 341 340 339 335 328 319 310 303 291 275 270 274 279 278 272 266 261 257 255 253 249 247 248 249 249 245 239 236 234 228 222 219 216 218 217 215 215 215 211 209 213 219 225 231 238 245 250 253 254
347 347 349 352 353 353 354 355 356 358 3 3 359 357 357 355 355 357 355 350 344 340 339 338 338 338 338 339 343 345 345 347 348 347 344 341 338 337 335 333 333 326 311 301 294 282 274 273 277 276 268 265 264 257 254 252 250 249 249 246 241 235 227 226 225 219 216 216 216 219 221 220 220 222 222 222 223 227 232 237 243 248 252 255 256
344 346 349 350 352 353 353 353 355 359 4 3 1 359 357 354 353 353 352 349 343 338 336 336 335 333 333 335 337 340 343 344 343 344 345 343 341 341 337 334 336 334 318 303 295 285 273 265 264 264 259 261 263 257 253 251 248 247 245 240 233 227 222 220 218 214 214 217 219 222 224 225 226 227 227 228 230 233 237 241 245 249 251 252 253
342 344 346 348 351 354 353 351 353 358 2 2 1 359 357 355 352 351 350 347 342 339 336 334 332 329 328 330 332 336 339 340 340 342 343 340 340 341 340 337 337 337 331 320 304 281 264 251 244 244 242 245 253 255 253 251 247 241 235 230 228 225 222 221 219 219 219 220 223 227 228 228 229 229 228 230 232 235 237 240 244 245 245 246 249
341 343 344 348 352 354 352 350 353 357 359 359 358 357 355 354 352 350 350 347 342 338 335 333 332 329 325 325 328 331 334 337 338 338 336 335 336 337 336 335 335 336 337 334 308 269 245 229 222 220 222 233 242 245 245 242 238 233 227 224 225 225 224 224 224 224 225 225 227 228 228 228 230 230 231 231 232 234 234 234 235 238 239 240 245
342 344 345 348 351 351 351 351 354 355 354 354 356 356 355 354 350 347 348 349 346 341 338 338 339 334 327 324 327 328 329 332 334 333 331 330 331 332 331 329 327 327 331 329 300 253 223 209 208 211 219 229 230 229 230 229 225 224 223 221 221 222 222 221 222 225 225 225 226 227 228 230 232 231 230 228 228 229 227 227 231 235 238 239 245
342 343 345 348 349 348 348 350 353 354 351 351 352 351 352 355 354 349 347 348 350 350 346 344 344 339 331 326 326 325 326 329 332 331 329 329 330 329 328 327 321 319 322 316 278 238 216 207 209 216 225 229 225 222 221 219 216 218 220 218 219 221 222 222 225 227 225 225 227 229 230 231 229 225 223 222 223 223 225 230 234 236 238 242 250
340 339 342 344 344 343 343 346 349 351 351 352 351 346 343 347 351 353 352 348 348 353 354 350 348 343 335 328 324 324 327 331 333 332 329 330 332 332 330 329 324 319 318 300 258 234 221 214 217 226 232 235 233 228 223 221 220 219 218 218 219 221 223 224 226 224 221 221 223 226 230 231 228 225 224 225 227 228 231 234 235 239 244 248 254
339 336 338 339 339 340 341 344 347 348 349 352 352 346 339 338 341 348 353 353 351 354 358 358 354 350 343 335 329 327 329 331 332 331 331 332 333 333 333 330 325 323 313 274 244 238 232 225 229 236 239 240 242 238 231 229 227 224 221 219 219 221 224 227 227 223 219 220 222 226 230 233 232 232 235 237 238 238 238 238 239 244 251 255 258
341 338 337 337 339 341 344 346 348 348 348 348 348 345 340 336 335 337 342 348 353 356 0 2 359 355 351 345 338 334 332 331 330 331 334 336 334 335 335 332 329 328 299 239 231 238 239 237 241 247 249 250 251 247 242 239 236 233 230 227 226 228 231 231 228 225 223 226 231 234 236 236 237 239 242 243 243 243 242 245 249 252 254 257 261
343 340 338 337 338 342 346 348 348 348 348 347 345 342 339 338 335 331 332 338 344 349 354 359 0 358 354 349 343 338 336 334 331 330 334 338 339 338 338 341 346 343 267 227 237 253 249 246 252 257 258 259 258 256 252 249 246 242 240 238 238 238 236 231 227 226 227 232 237 240 240 240 239 240 241 242 243 245 248 251 254 256 255 257 262
345 344 341 340 341 343 347 349 348 347 347 346 344 341 340 340 339 333 330 330 332 335 341 350 356 358 356 352 345 339 338 338 335 329 329 335 340 341 344 357 12 16 322 221 255 282 268 263 267 269 268 267 266 263 260 258 257 254 250 246 244 239 234 230 229 230 233 237 241 243 243 243 243 244 245 246 246 249 253 255 256 256 257 259 263
345 344 341 343 344 343 345 348 349 348 346 344 343 343 342 343 342 338 335 333 330 329 333 342 350 356 359 359 351 343 341 343 341 335 327 328 337 343 348 360 11 11 359 339 339 328 304 287 282 280 279 279 276 272 269 269 268 266 260 254 249 242 237 235 235 236 239 241 243 245 245 245 247 248 248 250 252 254 257 260 259 259 261 263 265
345 343 342 346 344 341 344 347 349 349 347 345 344 344 344 345 345 342 340 338 335 332 333 339 345 350 355 359 357 349 344 344 346 348 344 337 338 343 347 350 357 359 353 342 330 322 316 309 303 295 289 287 284 278 276 278 277 274 270 264 259 254 250 249 249 247 247 247 248 249 249 250 252 251 250 252 255 256 258 260 261 262 265 265 265
342 338 340 346 345 342 342 345 348 349 347 346 347 346 345 345 345 344 343 341 338 335 335 338 341 344 347 352 354 351 345 345 349 356 359 353 345 342 343 344 345 345 343 341 333 322 313 313 317 316 305 299 292 281 276 281 281 280 282 279 272 266 261 258 257 253 251 252 252 252 254 254 254 254 253 253 255 258 261 262 263 264 265 264 263
342 338 335 339 344 345 345 345 348 348 346 346 347 347 345 343 343 342 341 339 337 336 337 337 339 342 345 349 350 348 345 345 348 352 354 352 347 340 336 340 344 338 331 332 336 331 319 313 315 321 321 315 306 293 285 289 291 289 288 285 278 270 260 256 255 253 251 253 253 254 257 258 257 257 256 255 257 260 262 263 264 264 265 265 266
342 340 334 335 340 345 346 347 346 345 343 343 345 345 343 342 341 340 339 337 335 336 338 337 338 342 347 349 348 346 342 341 344 347 346 345 345 341 332 330 338 339 329 324 325 324 317 310 309 310 307 301 297 294 292 293 292 290 285 280 276 271 266 262 261 259 258 259 262 263 264 265 265 263 260 259 260 262 263 266 268 267 268 271 273
340 337 332 334 337 338 343 346 343 340 339 340 342 343 342 341 341 341 339 337 336 336 338 338 340 344 349 351 350 346 342 341 344 347 345 341 341 341 335 327 329 333 328 323 319 313 304 298 297 298 293 284 279 280 282 282 280 279 279 281 279 276 273 269 267 267 267 269 271 271 271 272 271 268 266 266 267 267 266 267 270 271 273 275 277
339 333 328 331 334 336 340 341 340 339 339 341 343 343 341 340 342 342 340 339 338 338 338 339 342 346 350 352 351 348 345 344 345 347 347 344 340 338 336 331 329 330 326 322 317 310 300 293 290 290 289 285 279 276 276 278 277 275 276 279 280 278 276 274 272 273 274 274 274 274 275 275 273 272 272 272 271 269 268 269 271 273 275 276 277
336 332 326 324 328 337 341 339 338 340 343 344 344 344 343 342 344 343 341 340 340 340 339 340 342 345 348 351 352 351 349 347 345 344 347 347 342 338 336 333 331 330 327 322 318 311 300 293 290 288 288 289 285 280 276 277 278 277 276 275 275 276 276 275 274 274 276 277 278 277 276 276 275 274 274 272 270 269 270 270 272 274 275 276 278
333 330 323 316 319 331 340 340 339 341 344 344 343 344 346 346 345 344 342 340 341 342 342 342 343 344 345 349 352 351 348 347 345 343 344 346 345 341 337 333 330 329 327 324 322 316 304 296 292 289 286 285 284 281 276 273 273 275 273 270 268 269 270 271 273 275 277 279 279 277 276 276 276 275 273 272 271 270 270 271 273 275 276 277 277
329 326 319 314 315 324 335 340 340 340 341 341 341 343 346 347 346 345 343 340 340 342 343 344 345 345 344 346 348 348 346 345 345 343 342 342 344 344 341 335 330 327 324 323 324 322 314 307 299 293 289 286 285 284 280 276 275 274 272 270 269 269 270 272 272 272 271 271 271 272 272 271 272 273 273 274 274 273 273 274 275 275 275 275 275
322 319 316 315 316 322 330 334 336 337 338 337 337 338 341 343 344 343 341 339 339 340 340 342 345 345 344 344 345 344 344 343 343 344 343 341 340 343 344 339 332 325 321 319 319 319 316 312 305 300 299 297 294 290 286 283 282 279 276 275 275 274 275 274 269 265 263 263 264 266 265 265 267 271 274 276 276 274 274 274 273 273 274 275 276
315 314 314 313 314 319 326 328 328 330 332 332 332 333 334 336 338 339 338 338 338 338 338 339 342 343 344 344 343 343 344 342 340 341 343 341 339 339 341 341 337 329 321 317 315 314 314 312 308 306 306 304 299 293 288 285 284 282 280 278 277 276 274 271 267 263 260 258 258 258 259 262 266 270 273 275 274 271 270 270 270 271 273 274 276
309 310 311 309 311 316 321 323 323 324 326 327 328 328 329 330 332 335 337 337 338 337 336 337 339 341 342 344 343 343 342 341 338 338 339 340 340 339 337 337 337 332 324 319 314 312 312 312 310 309 308 305 300 294 288 284 281 279 279 278 278 277 274 268 264 263 261 256 254 255 258 264 270 273 274 274 271 269 268 268 268 270 272 273 275
303 305 305 305 308 313 316 318 318 319 320 323 323 323 325 327 329 333 336 337 336 336 335 335 336 338 339 342 344 343 339 337 336 335 335 336 338 339 337 335 335 333 328 323 318 313 310 309 308 308 309 306 301 295 291 287 284 281 278 277 275 276 276 272 267 264 262 259 259 261 263 268 273 274 274 273 271 268 268 268 268 271 272 272 274
294 298 299 300 303 308 311 311 312 314 316 317 318 319 322 324 326 331 335 336 335 335 334 332 333 334 335 338 341 340 337 334 333 334 335 336 336 337 337 335 334 332 329 326 322 317 313 310 308 307 307 306 301 295 290 289 287 284 281 277 272 269 272 274 273 270 267 265 266 267 269 272 275 275 273 271 267 264 265 267 269 270 270 271 274
289 292 293 294 298 303 305 306 308 310 312 313 314 316 318 320 323 327 330 330 331 331 330 329 330 331 332 335 337 336 335 334 334 336 338 338 337 338 338 336 334 332 329 326 324 320 316 313 310 308 306 304 300 295 290 287 286 285 283 281 276 270 267 269 272 272 271 269 269 269 271 274 275 274 272 268 264 263 265 266 267 268 269 270 273